Location: Kitchener
(43.4500°N, 80.5000°W)
Time: 23:42:57
(UTC-04:00)

ISS - Visible Passes

Search period start: 18 July 2018 00:00
Search period end: 28 July 2018 00:00
Orbit: 402 x 408 km, 51.6° (Epoch: 19 July)

Date Brightness Start Highest point End Pass type
(mag) Time Alt. Az. Time Alt. Az. Time Alt. Az.
18 Jul -1.8 01:00:29 30° NNW 01:00:29 30° NNW 01:03:16 10° NE visible
18 Jul -1.0 02:35:03 10° NW 02:37:30 19° N 02:39:59 10° NE visible
18 Jul -1.9 04:11:40 10° NW 04:14:42 33° NNE 04:17:44 10° E visible
18 Jul -2.6 22:28:49 10° SSW 22:35:08 - ENE 22:30:44 24° S visible
19 Jul -2.6 00:07:07 32° WNW 00:08:05 42° NNW 00:11:15 10° NE visible
19 Jul -1.0 01:42:40 10° NW 01:45:10 20° N 01:47:41 10° NE visible
19 Jul -1.4 03:19:37 10° NW 03:22:26 25° NNE 03:25:15 10° ENE visible
19 Jul -3.9 04:55:55 10° WNW 04:59:13 81° SW 05:02:30 10° SE visible
19 Jul -2.2 21:37:41 10° S 21:39:46 16° SE 21:41:52 10° E visible
19 Jul -3.6 23:12:39 10° WSW 23:15:55 69° NNW 23:19:11 10° NE visible
20 Jul -1.2 00:50:11 10° WNW 00:52:51 22° N 00:55:30 10° NE visible
20 Jul -1.1 02:27:31 10° NW 02:30:07 21° N 02:32:44 10° ENE visible
20 Jul -3.2 04:03:50 10° NW 04:07:06 58° NNE 04:10:21 10° ESE visible
20 Jul -3.9 22:20:34 10° SW 22:23:48 67° SE 22:27:04 10° ENE visible
20 Jul -1.6 23:57:39 10° WNW 00:00:32 27° NNW 00:03:24 10° NE visible
21 Jul -1.0 01:35:17 10° NW 01:37:46 19° N 01:40:14 10° NE visible
21 Jul -2.3 03:11:47 10° NW 03:14:54 37° NNE 03:18:00 10° E visible
21 Jul -3.2 04:48:20 10° WNW 04:51:22 35° SW 04:54:24 10° SSE visible
21 Jul -3.2 21:28:44 10° SSW 21:31:46 36° SE 21:34:48 10° ENE visible
21 Jul -2.2 23:05:10 10° W 23:08:15 36° NNW 23:11:20 10° NE visible
22 Jul -1.0 00:42:55 10° NW 00:45:23 19° N 00:47:52 10° NE visible
22 Jul -1.7 02:19:43 10° NW 02:22:37 27° NNE 02:25:31 10° ENE visible
22 Jul -4.0 03:56:03 10° WNW 03:59:20 65° SW 04:02:35 10° SE visible
22 Jul -3.1 22:12:48 10° WSW 22:16:01 57° NNW 22:19:16 10° NE visible
22 Jul -1.1 23:50:25 10° WNW 23:53:01 21° N 23:55:35 10° NE visible
23 Jul -1.3 01:27:37 10° NW 01:30:17 22° NNE 01:30:50 21° NNE visible
23 Jul -1.4 22:57:52 10° WNW 23:00:38 25° NNW 23:03:26 10° NE visible
24 Jul -1.1 00:35:23 10° NW 00:37:54 20° N 00:39:26 15° NE visible
24 Jul -0.8 02:11:48 10° NW 02:12:01 11° NW 02:12:01 11° NW visible
24 Jul -1.9 22:05:19 10° W 22:08:18 32° NNW 22:11:19 10° NE visible
24 Jul -1.0 23:43:02 10° NW 23:45:29 19° N 23:47:56 10° NE visible
25 Jul -1.2 01:19:43 10° NW 01:21:06 20° NNW 01:21:06 20° NNW visible
25 Jul -1.1 22:50:32 10° WNW 22:53:04 20° N 22:55:35 10° NE visible
26 Jul -1.5 00:27:35 10° NW 00:30:19 24° NNE 00:30:20 24° NNE visible
26 Jul -1.3 21:57:57 10° WNW 22:00:38 23° NNW 22:03:21 10° NE visible
26 Jul -1.3 23:35:22 10° NW 23:37:55 20° N 23:39:39 14° NE visible
27 Jul -0.9 01:11:43 10° NW 01:12:16 14° NW 01:12:16 14° NW visible
27 Jul -1.2 22:43:01 10° NW 22:45:28 19° N 22:47:55 10° NE visible
